Zurück zum Katalog

THOR ABLESTAR DEB

AktivLEO
NORAD 334·DEBRIS·🇺🇸 United States

Gestartet Jun 29, 1961 von Cape Canaveral Space Force Station

Loading…

Nächste Überflüge (nächste 24 Stunden)

TLE

AktuellSource: Space-Track

Epoche: Sep 6, 2026, 06:36 UTC

1 00334U 61015DL  26249.27523157 -.00000038  00000-0  28761-4 0  9998
2 00334  66.9266 346.7072 0074663  40.0819 320.5737 13.91757288307349

Verfolge THOR ABLESTAR DEB in Echtzeit mit AllMySat

Download on the App Store